Regional Weather Roundup
Issued by NWS

Home | Current Version | Previous Version | Text Only | Print | Product List | Glossary On
Versions: 1 2 3 4 5 6 7 8 9 10 11 12 13 14 15 16 17 18 19 20 21 22 23 24 25 26 27 28 29 30 31 32 33 34 35 36 37 38 39 40 41 42 43 44 45 46 47 48 49 50
866
ASUS44 KLIX 220901
RWRLA
LOUISIANA WEATHER ROUNDUP
NATIONAL WEATHER SERVICE NEW ORLEANS LA
400 AM CDT FRI AUG 22 2014

NOTE: "FAIR" INDICATES FEW OR NO CLOUDS BELOW 12,000 FEET WITH NO
      SIGNIFICANT WEATHER AND/OR OBSTRUCTIONS TO VISIBILITY.
      SKY/WX - SKY CONDITION AND SIGNIFICANT WEATHER.
      TMP - AIR TEMPERATURE.    DP   - DEWPOINT TEMPERATURE.
      RH  - RELATIVE HUMIDITY.  PRES - PRESSURE.
      HX  - HEAT INDEX.         WCI  - WIND CHILL INDEX.

*  THESE STATIONS ARE NOT NWS OR FAA STATIONS AND ARE NOT UNDER
   NWS QUALITY CONTROL.

LAZ040-048-061>063-065-066-069-221000-
SOUTHEAST LOUISIANA

CITY           SKY/WX    TMP DP  RH WIND       PRES   REMARKS
N.O. AUDUBON   NOT AVBL
N.O. INTL ARPT PTCLDY    76  72  87 CALM      30.08R
N.O. LAKEFRONT PTCLDY    81  75  82 SW3       30.08S
N.O. DOWNTOWN* FAIR      79  70  73 CALM      30.08S
SLIDELL        PTCLDY    75  71  87 N5        30.08R
BATON ROUGE    PTCLDY    75  73  93 CALM      30.08S
BOOTHVILLE     CLEAR     81  78  91 NW3       30.07S
BELLE CHASSE   PTCLDY    74  71  91 CALM      30.07S
BOGALUSA*        N/A     75  71  87 CALM      30.10S
GALLIANO*      NOT AVBL
NEW ROADS*     FAIR      72  71  98 CALM      30.08S
GONZALES*      FAIR      73  73  99 CALM      30.08S
HAMMOND*       NOT AVBL
HOUMA*         CLEAR     73  71  91 CALM      30.07S
PORT FOURCHON* SUNNY     84  75  74 CALM      30.08S

$$

LAZ041-044-053-054-221000-
SOUTHWEST LOUISIANA

CITY           SKY/WX    TMP DP  RH WIND       PRES   REMARKS
LAKE CHARLES   PTCLDY    77  75  93 E3        30.07S
LAFAYETTE      PTCLDY    75  73  93 CALM      30.08R
PATTERSON      PTCLDY    75  73  94 CALM      30.10S
SALT POINT       N/A     81  78  91 CALM      30.06S
NEW IBERIA     CLEAR     76  73  91 CALM      30.08S
CHENAULT AIRPK CLEAR     76  74  94 CALM      30.08F

$$

LAZ027-028-221000-
CENTRAL LOUISIANA

CITY           SKY/WX    TMP DP  RH WIND       PRES   REMARKS
FORT POLK      FOG       73  73 100 CALM      30.08S VSB 1/2
ALEXANDRIA INT CLOUDY    74  72  93 CALM      30.05F
ALEXANDRIA     CLOUDY    75  72  90 CALM      30.07S

$$

LAZ001-002-221000-
NORTHWEST LOUISIANA

CITY           SKY/WX    TMP DP  RH WIND       PRES   REMARKS
SHREVEPORT     PTCLDY    76  74  93 S3        30.05R
BARKSDALE AFB  CLEAR     74  74  99 SE5       30.05S
DTN SHREVEPORT CLEAR     76  32  20 SE5       30.05R

$$

LAZ014-016-221000-
NORTHEAST LOUISIANA

CITY           SKY/WX    TMP DP  RH WIND       PRES   REMARKS
MONROE         PTCLDY    72  70  93 CALM      30.08R
TALLULAH       PTCLDY    73  71  93 S3        30.07S

$$




USA.gov is the U.S. government's official web portal to all federal, state and local government web resources and services.